Content
SEND FEEDBACK

Daily
Averages
Monthly
Summary
United States of America

CHICAGO, ILLINOIS


Home > North America > United States > Illinois
Elevation: 674 feet     Latitude: 41 59N     Longitude: 087 54W

WEATHER
 
SELECT A DAY
Number of Records: 199,585;   Date Range: 7/8/95 - 12/18/14
 
SHARE

PRINT THIS DATA

[ ← Previous Day ]
WEATHER ALMANAC - MAY 22, 2013
[ Next Day → ]
[ °C ]   °F
Weather ElementAverageHighLow
Temperature65.2 °F73 °F (4:52 pm)53.1 °F (10:52 pm)
Dewpoint60.3 °F66.2 °F (1:12 am)51.1 °F (9:52 pm)
Humidity85.1 %100 % (4:09 am)55 % (4:52 pm)
Barometer29.68 in29.78 in (11:52 pm)29.63 in (8:52 am)
Wind Speed6.4 mph12.7 mph (5:52 pm)
Wind Gust20.7 mph (1:03 pm)
Weather ElementAverage
Visibility6 mi
Wind DirectionSSE (167.1 °)

Weather ElementTotal
Precipitation4.17 in
Heating Degree Days2 (Base 65)
Growing Degree Days13.1 (Base 50)
Averaged from 49 records on May 22, 2013
WEATHER CONDITIONS BREAKOUT
WIND DIRECTION BREAKOUT
WEATHER BY HOUR - MAY 22, 2013
[ °C ]   °F
Local TimeTemperatureDewpointHumidityBarometerVisibilityWind DirectionWind SpeedGust SpeedPrecipitationEventsConditions
12:52 AM69.1 °F64.9 °F87 %29.70 in4.0 miSouth (190°)9.2 mph0.01 inRain-ThunderstormLight Rain
1:12 AM68.0 °F66.2 °F94 %29.69 in3.0 miSouth (190°)5.8 mph0.06 inRainLight Rain
1:52 AM66.9 °F64.0 °F90 %29.68 in3.0 miSSE (160°)4.6 mph0.14 inRainRain
2:52 AM66.0 °F64.0 °F93 %29.66 in10.0 miCalm0.01 inRainLight Rain
3:45 AM66.2 °F64.4 °F94 %29.67 in7.0 miSSE (150°)4.6 mph0.02 inRainLight Rain
3:52 AM66.0 °F64.0 °F93 %29.65 in5.0 miSSE (150°)3.5 mph0.03 inRainLight Rain
3:59 AM66.2 °F64.4 °F94 %29.67 in1.8 miSSE (150°)5.8 mph0.11 inRainHeavy Rain
4:09 AM64.4 °F64.4 °F100 %29.67 in2.0 miSouth (170°)5.8 mph0.21 inRainHeavy Rain
4:16 AM64.4 °F64.4 °F100 %29.67 in1.2 miSSE (150°)6.9 mph0.35 inRainHeavy Rain
4:30 AM64.4 °F62.6 °F94 %29.67 in2.0 miVariable4.6 mph0.51 inRainRain
4:35 AM66.2 °F62.6 °F88 %29.67 in3.0 miWest (270°)3.5 mph0.51 inRainLight Rain
4:52 AM66.9 °F64.0 °F90 %29.65 in8.0 miNNW (340°)3.5 mph0.51 inOvercast
5:22 AM66.2 °F64.4 °F94 %29.66 in6.0 miNE (40°)3.5 mph0.00 inRainLight Rain
5:32 AM66.2 °F64.4 °F94 %29.66 in2.5 miCalm0.08 inRainRain
5:52 AM66.0 °F64.9 °F96 %29.64 in1.8 miCalm0.17 inRainHeavy Rain
6:52 AM66.9 °F64.9 °F93 %29.64 in2.5 miSSE (160°)3.5 mph0.02 inRainLight Rain
7:52 AM68.0 °F64.9 °F90 %29.64 in3.0 miSouth (180°)3.5 mph0.01 inOvercast
8:52 AM69.1 °F64.9 °F87 %29.63 in7.0 miWSW (250°)6.9 mph0.00 inOvercast
9:35 AM69.8 °F64.4 °F83 %29.65 in6.0 miWSW (240°)3.5 mph0.01 inRainLight Rain
9:52 AM69.1 °F64.0 °F84 %29.64 in10.0 miSSW (210°)8.1 mph0.01 inMostly Cloudy
10:05 AM69.8 °F62.6 °F78 %29.65 in10.0 miSW (230°)9.2 mphScattered Clouds
10:41 AM71.6 °F64.4 °F78 %29.65 in10.0 miSSW (200°)10.4 mphMostly Cloudy
10:52 AM72.0 °F63.0 °F73 %29.64 in10.0 miWSW (240°)6.9 mphMostly Cloudy
11:10 AM71.6 °F62.6 °F73 %29.66 in10.0 miSSW (210°)8.1 mphOvercast
11:52 AM71.1 °F61.0 °F70 %29.64 in10.0 miWSW (240°)5.8 mphThunderstormOvercast
12:13 PM66.2 °F62.6 °F88 %29.65 in1.8 miWest (260°)5.8 mph0.05 inRain-ThunderstormRain
12:34 PM66.2 °F62.6 °F88 %29.68 in1.0 miSSW (200°)6.9 mph0.24 inRain-ThunderstormLight Thunderstorms and Rain
12:38 PM66.2 °F62.6 °F88 %29.69 in2.5 miSSW (210°)10.4 mph0.26 inRain-ThunderstormLight Thunderstorms and Rain
12:48 PM64.4 °F60.8 °F88 %29.69 in1.8 miWSW (240°)8.1 mph0.33 inRain-ThunderstormHeavy Rain
12:52 PM64.9 °F61.0 °F87 %29.69 in1.5 miWSW (240°)10.4 mph19.6 mph0.35 inRain-ThunderstormThunderstorms and Rain
1:03 PM64.4 °F60.8 °F88 %29.70 in3.0 miSW (230°)11.5 mph20.7 mph0.02 inRain-ThunderstormLight Thunderstorms and Rain
1:13 PM64.4 °F60.8 °F88 %29.70 in3.0 miWSW (250°)10.4 mph0.05 inRainRain
1:52 PM64.9 °F60.1 °F84 %29.67 in10.0 miWNW (300°)5.8 mph0.10 inMostly Cloudy
2:52 PM66.9 °F61.0 °F81 %29.68 in10.0 miSW (220°)8.1 mphOvercast
3:52 PM70.0 °F60.1 °F71 %29.67 in10.0 miWSW (240°)10.4 mph17.3 mphOvercast
4:03 PM71.6 °F59.0 °F64 %29.68 in10.0 miWSW (240°)8.1 mphOvercast
4:52 PM73.0 °F55.9 °F55 %29.66 in10.0 miWest (270°)6.9 mphMostly Cloudy
5:52 PM71.1 °F54.0 °F55 %29.67 in10.0 miWest (260°)12.7 mph19.6 mphOvercast
6:52 PM71.1 °F54.0 °F55 %29.67 in10.0 miWSW (250°)11.5 mph18.4 mphMostly Cloudy
7:52 PM69.1 °F54.0 °F58 %29.69 in10.0 miWest (270°)6.9 mphOvercast
8:52 PM55.0 °F52.0 °F89 %29.73 in10.0 miNE (40°)6.9 mphOvercast
9:11 PM55.4 °F51.8 °F88 %29.75 in10.0 miNE (50°)5.8 mphOvercast
9:25 PM55.4 °F51.8 °F88 %29.75 in10.0 miNE (40°)6.9 mphOvercast
9:52 PM54.0 °F51.1 °F90 %29.76 in10.0 miNE (50°)5.8 mphOvercast
10:21 PM53.6 °F51.8 °F94 %29.77 in5.0 miNE (50°)5.8 mphOvercast
10:52 PM53.1 °F51.1 °F93 %29.76 in3.0 miNE (40°)6.9 mphOvercast
11:01 PM53.6 °F51.8 °F94 %29.77 in2.5 miNE (40°)3.5 mphOvercast
11:08 PM53.6 °F51.8 °F94 %29.77 in4.0 miNNE (30°)5.8 mphOvercast
11:52 PM53.1 °F51.1 °F93 %29.78 in5.0 miNE (50°)6.9 mphOvercast
Hourly data recorded from KPWK, located miles away from Chicago, Illinois







STORIES FROM OUR PARTNERS